Погода в Гыде

Россия / Ямало-Ненецкий автономный округ     70°53′36″N   78°29′06″E
темп.,
°C
ветер,
м/с
пор.,
м/с
влажн.,
%
обл.,
%
осадки,
мм/ч
давл.,
гПа
погр.,
м
23 октября, сб
сб2323:00−9в5894100 0.0 999283
02:00−10в5994100 0.0 996269
05:00−9всв4895100 0.0 995265
08:00−11в4893100 0.0 993255
11:00−11всв369391 0.0 992205
14:00−12в369588 0.0 991143
17:00−13в4795100 0.0 991152
20:00−15в3596100 0.0 99184
24 октября, вс
вс2423:00−15в479694 0.0 991119
02:00−15в479686 0.0 990111
05:00−14в4794100 0.0 990159
08:00−12всв4794100 0.0 990163
11:00−11всв5794100 0.0 990194
14:00−9всв5895100 0.5 990224
17:00−8всв5995100 1.1 991257
20:00−7всв599599 0.6 991278
25 октября, пн
пн2523:00−8всв6995100 1.1 992282
02:00−9всв5995100 0.6 993289
05:00−10всв5895100 1.3 994291
08:00−10всв4794100 0.7 995290
11:00−10всв3594100 1.4 995292
14:00−10св3494100 0.8 996289
17:00−10ссв1395100 1.6 997233
20:00−10с1295100 0.7 998213
26 октября, вт
вт2623:00−10ссз2295100 1.3 999195
02:00−10зсз2295100 0.4 1000158
05:00−11зюз2296100 0.6 100153
08:00−12юз229693 0.1 100144
11:00−13ююв229796 0.1 100242
14:00−11ююв129782 0.2 100248
17:00−12ююз3397100 0.3 100249
20:00−13ю339794 0.1 100257
27 октября, ср
ср2723:00−15ю229996 0.2 100227
02:00−16ююв119990 0.1 100227
05:00−16св1110088 0.2 100119
08:00−17с3310090 0.1 100132
11:00−17с34100100 0.1 100162
14:00−17ссз34100100 0.0 100159
17:00−17ссз469999 0.1 100278
20:00−18ссз369955 0.0 100366